Regional Weather Roundup
Issued by NWS

Home | Current Version | Previous Version | Graphics & Text | Print | Product List | Glossary On
Versions: 1 2 3 4 5 6 7 8 9 10 11 12 13 14 15 16 17 18 19 20 21 22 23 24 25 26 27 28
000
ASUS45 KPSR 240310
RWRAZ

ARIZONA HOURLY REGIONAL WEATHER ROUNDUP
NATIONAL WEATHER SERVICE PHOENIX AZ
800 PM MST SUN JUL 23 2017

NOTE: FAIR INDICATES FEW OR NO CLOUDS BELOW 12,000 FEET WITH NO
SIGNIFICANT WEATHER AND/OR OBSTRUCTIONS TO VISIBILITY.

AZZ001>003-036-240400-
NORTHWEST ARIZONA

CITY           SKY/WX    TMP DP  RH WIND       PRES   REMARKS
KINGMAN        TSTM      73  65  75 E9G18     30.03R
$$

AZZ004>008-015-016-018-240400-
NORTH CENTRAL ARIZONA

CITY           SKY/WX    TMP DP  RH WIND       PRES   REMARKS
GRAND CANYON   CLOUDY    68  59  73 SE3       30.22R
WILLIAMS       CLOUDY    64  63  94 CALM      30.23S
PRESCOTT       LGT RAIN  68  66  93 CALM      30.13R
FLAGSTAFF      CLOUDY    60  60 100 W5        30.27R
PAYSON         CLOUDY    68  66  94 NE5       30.16R
PAGE           CLOUDY    90  53  28 S12G17    29.97R
$$

AZZ009>014-017-240400-
NORTHEAST ARIZONA

CITY           SKY/WX    TMP DP  RH WIND       PRES   REMARKS
WINSLOW        CLOUDY    80  60  50 SW10      30.07R
SAINT JOHNS    CLOUDY    76  58  53 W7        30.12R
WINDOW ROCK    CLOUDY    74  58  57 CALM      30.20R
SHOW LOW       CLOUDY    66  57  72 S13       30.22R
$$

AZZ540-542>544-546-548-240400-
GREATER PHOENIX AREA

CITY           SKY/WX    TMP DP  RH WIND       PRES   REMARKS
PHOENIX        NOT AVBL
BUCKEYE        MOCLDY    95  64  36 S3        29.78R
LUKE AFB       MOCLDY    88  69  53 E22G36    29.82R
DEER VALLEY    CLOUDY    82  65  56 SE25G36   29.83R
SCOTTSDALE     CLOUDY    78  67  68 SE14G23   29.87S
MESA-FALCON      N/A     75  73  94 SE14      29.89R
MESA-GATEWAY   CLOUDY    75  72  88 E6        29.90R
CHANDLER       LGT RAIN  77  73  88 NE12      29.89R
$$

AZZ539-553-240400-
SOUTHWEST MARICOPA COUNTY AND PINAL COUNTY

CITY           SKY/WX    TMP DP  RH WIND       PRES   REMARKS
CASA GRANDE    TSTM      80  70  71 N9        29.91R
GILA BEND      MOCLDY    98  60  28 SW12      29.75R
$$

AZZ503-504-507>509-240400-
SOUTHEAST ARIZONA

CITY           SKY/WX    TMP DP  RH WIND       PRES   REMARKS
TUCSON         CLOUDY    76  71  85 S8        29.97S
DAVIS-MONTHAN  DRIZZLE   75  72  88 S7        29.96S
RYAN FIELD     CLEAR     75  72  88 E7        29.97R
NOGALES        CLOUDY    72  67  84 W3        30.05R
SIERRA VISTA   CLOUDY    69  66  90 S3        30.11R
DOUGLAS        CLOUDY    70  68  93 NE7       30.06S
SAFFORD        CLOUDY    73  68  84 NW8       29.98R
$$

AZZ532-240400-
SOUTHWEST ARIZONA

CITY           SKY/WX    TMP DP  RH WIND       PRES   REMARKS
YUMA           PTCLDY    94  65  38 S17       29.72R
$$

CAZ041-043-047-048-061-525>527-560>570-240400-
SOUTHERN CALIFORNIA

CITY           SKY/WX    TMP DP  RH WIND       PRES   REMARKS
DOWNTOWN L.A.  CLEAR     73  64  73 W6        29.84R
L.A. AIRPORT   PTCLDY    68  64  87 SW9       29.85R
SAN DIEGO      MOCLDY    71  62  73 VRB6      29.90R
BURBANK        CLEAR     75  56  51 S9        29.84R
ONTARIO        PTCLDY    79  54  41 W12       29.84R
RIVERSIDE      CLEAR     80  61  52 VRB7      29.84R
PALM SPRINGS   CLEAR    102  66  30 E12       29.71R HX 106
EL CENTRO NAS  MOCLDY    96  63  33 SE16      29.67R
IMPERIAL       MOCLDY    96  67  38 SE18      29.65R HX 100
BLYTHE         PTCLDY    98  62  30 S15       29.71R
NEEDLES        PTCLDY   106  60  22 S15G24    29.72R HX 107
$$

NVZ020-UTZ003-240400-
SOUTHERN NEVADA-UTAH

CITY           SKY/WX    TMP DP  RH WIND       PRES   REMARKS
LAS VEGAS      PTCLDY   103  56  21 SE15G24   29.75R HX 102
SALT LAKE CITY PTCLDY    88  47  24 E5        29.97R
$$

NMZ009-TXZ055-240400-
NEW MEXICO-WEST TEXAS

CITY           SKY/WX    TMP DP  RH WIND       PRES   REMARKS
ALBUQUERQUE    CLOUDY    78  55  44 E18G29    30.14R
EL PASO        TSTM      73  71  93 NE6       30.06R
$$


........................KEY........................
SKY/WX - SKY CONDITION/WEATHER
TMP    - TEMPERATURE IN FAHRENHEIT
DP     - DEW POINT IN FAHRENHEIT
RH     - RELATIVE HUMIDITY IN PERCENT
WIND   - DIRECTION AND SPEED IN MILES PER HOUR (MPH)
VRB    - VARIABLE WIND DIRECTION
PRES   - MEAN SEA LEVEL PRESSURE IN INCHES OF MERCURY
         F - FALLING PRESSURE   R - RISING PRESSURE
         S - STEADY PRESSURE
VSB    - VISIBILITY IN MILES
HX     - HEAT INDEX IN FAHRENHEIT
WCI    - WIND CHILL INDEX IN FAHRENHEIT
TC     - TEMPERATURE IN CELSIUS WHICH IS ALSO KNOWN AS
         TEMPERATURE IN CENTIGRADE
AFB    - AIR FORCE BASE
         LUKE AFB IS LUKE AIR FORCE BASE
         DAVIS-MONTHAN IS DAVIS-MONTHAN AIR FORCE BASE
NAS    - NAVAL AIR STATION
         EL CENTRO NAS IS EL CENTRO NAVAL AIR STATION
N/A    - NOT AVAILABLE





USA.gov is the U.S. government's official web portal to all federal, state and local government web resources and services.